Main page
METAR-TAF:

METAR-TAF

Airports :

RAF Linton-on-Ouse

Linton-on-Ouse, England

latitude: 54-03N, longitude: 001-15W, elevation: 16 m

Current weather observation

The report was made 47 minutes ago, at 02:50 UTC
Wind 4 kt from the West/Northwest
Temperature 6°C
Humidity 87%
Pressure 1015 hPa
Visibility 10 km or more

METAR: EGXU 230250Z AUTO 30004KT 9999 // FEW120/// 06/04 Q1015

Time: 04:37 (03:37 UTC)


TAF: missing

Weather observations and forecasts of more than 4000 airports (METAR and TAF reports).

The available stations are represented by yellow and red dots on the map.

Hover mouse over dot to see the name of the station.

Then click to see weather observations and forecasts.

To change the map : click on the green buttons with a black cross to zoom in, on the green button with a dash to zoom out, or on the green arrows for adjacent maps.


METAR-TAF: